Theta_e
295 292 295 300 305 302 306 304 305 304 305 305 304 305 304 303 303 303 301 299 298 292 287 286 285 285 285 285 285 285 285 284 284 284 283 283 283 283 283 282 281 281 280
290 288 290 296 299 302 301 300 300 301 301 301 301 301 300 300 297 294 290 286 285 285 285 285 285 285 284 284 284 284 284 283 283 282 282 282 281 280 279 278 278 278 276
286 283 284 291 298 300 299 299 299 297 297 297 296 291 288 286 286 285 285 285 285 285 284 285 284 284 284 283 283 283 282 281 280 280 279 279 277 277 277 277 275 275 274
282 281 281 288 295 293 292 289 289 287 286 286 286 285 285 285 285 285 284 284 284 284 283 283 283 283 282 282 282 282 281 280 279 278 278 277 275 275 274 273 273 273 272
281 282 281 283 285 286 286 285 284 285 284 284 284 284 284 284 283 283 283 283 283 283 282 282 282 282 282 282 281 280 279 278 276 276 274 274 273 272 271 271 270 270 270
285 281 281 283 284 284 284 283 283 283 283 283 283 283 282 282 281 282 282 282 282 281 281 281 281 281 282 280 278 276 275 275 275 274 273 271 271 270 270 269 268 268 267
281 282 283 284 284 283 284 284 283 283 283 282 282 282 282 282 282 282 282 282 281 281 281 281 280 281 281 281 278 277 276 275 274 272 271 270 270 269 269 269 269 268 268
283 283 282 282 283 283 283 283 282 282 283 283 282 282 282 281 281 281 281 281 281 281 280 281 281 280 279 278 278 276 275 274 273 271 270 269 268 268 268 267 268 268 269
281 281 282 283 283 282 282 282 282 283 282 282 282 282 282 281 281 281 281 281 281 281 280 279 279 278 277 275 276 274 273 272 272 271 270 270 269 269 268 268 268 268 268
281 282 282 283 283 283 283 282 281 282 282 282 282 281 281 281 281 281 281 281 280 280 279 278 278 277 275 273 273 272 272 271 270 269 270 270 270 270 269 269 269 268 268
282 282 282 282 282 282 282 282 282 282 281 281 281 281 281 281 281 280 280 280 280 279 278 278 277 277 276 275 273 272 270 269 269 269 269 270 270 270 270 270 269 269 269
282 283 283 283 282 282 282 282 281 281 281 281 281 280 280 280 280 280 279 280 279 279 278 278 278 276 275 274 272 271 270 268 269 269 269 269 269 270 270 269 269 269 269
282 282 281 281 281 281 281 281 281 280 280 280 280 280 280 279 279 280 279 278 278 279 278 278 277 276 275 273 271 270 269 269 268 268 268 269 269 269 269 269 269 269 269
281 281 280 280 280 280 280 280 279 279 279 279 279 279 279 279 279 279 279 279 279 279 278 277 276 274 273 271 271 271 270 269 268 268 268 268 268 268 268 268 269 269 268
280 281 281 280 280 280 279 279 279 279 279 279 279 278 278 278 278 278 277 277 278 278 278 277 277 276 275 273 272 271 270 268 268 268 268 268 268 268 268 269 269 268 266
281 281 280 279 279 279 279 279 278 278 278 278 278 277 277 277 277 277 277 277 277 278 277 277 276 275 273 271 270 270 269 268 268 267 267 267 267 267 268 269 268 267 265
279 279 279 279 279 279 278 278 278 279 278 278 277 277 277 276 276 276 277 277 277 277 276 276 274 273 271 270 269 268 267 267 267 267 267 267 267 268 268 268 268 266 265
280 279 280 280 280 279 279 279 279 278 277 277 277 277 276 276 275 276 276 277 277 277 276 275 274 272 270 269 268 267 267 267 267 267 267 267 268 268 268 267 268 265 265
280 280 280 280 280 280 280 279 279 278 278 277 277 276 276 275 275 274 275 276 277 277 276 275 273 271 269 268 267 267 267 267 267 267 267 268 268 268 268 268 267 266 264
281 281 281 281 280 280 280 279 278 278 277 277 277 277 276 276 275 275 275 276 276 276 275 274 273 271 269 268 267 267 267 267 267 267 268 268 268 268 268 268 266 265 265
281 280 280 280 279 279 279 278 278 277 277 276 275 276 276 275 274 274 274 275 275 275 274 273 272 270 268 267 267 267 267 267 267 268 268 268 268 269 270 268 266 265 266
281 280 280 279 279 279 278 278 277 277 276 276 275 275 274 274 274 273 273 274 275 274 273 272 271 269 268 267 267 267 267 268 268 268 268 268 269 270 269 267 267 267 268
281 280 279 279 279 278 278 277 277 276 276 275 275 275 274 275 275 273 273 274 275 274 273 272 270 269 268 267 267 267 268 268 268 268 268 269 270 270 269 268 269 271 271
281 280 280 279 278 278 277 277 277 276 275 275 275 275 275 275 275 273 273 274 275 274 273 271 269 268 268 268 268 268 268 268 268 268 269 270 270 269 269 271 270 271 271
282 281 280 279 279 278 277 277 276 276 275 274 274 276 276 276 276 273 273 274 274 274 273 271 269 268 268 268 269 269 268 269 269 269 270 270 270 271 271 271 271 271 272
282 281 281 280 279 278 278 277 276 276 276 274 273 276 276 276 275 273 273 274 274 274 273 271 269 268 268 269 269 269 269 269 269 269 270 271 270 271 271 271 271 272 274
Wind_Speed
17 23 27 33 33 37 38 39 38 39 38 39 38 37 35 33 29 27 25 23 20 21 21 18 17 15 11 9 7 6 5 6 9 13 17 20 23 26 28 31 35 38 39
27 32 36 42 45 46 47 47 45 45 42 41 38 37 33 30 28 26 27 25 24 22 21 16 16 12 9 9 8 8 8 10 14 17 22 25 27 33 36 38 41 40 43
36 36 40 51 54 52 49 46 44 42 40 37 36 36 36 34 31 29 26 24 22 20 18 15 13 10 10 12 14 16 18 19 21 23 27 29 32 36 40 42 43 44 44
36 37 38 54 55 53 49 46 44 42 41 40 39 37 35 33 30 27 24 22 20 19 17 16 15 16 17 18 19 19 20 21 24 25 28 31 36 39 42 45 48 46 49
41 45 47 53 52 50 48 45 44 41 40 38 37 35 33 30 28 25 23 22 20 18 17 17 18 19 21 22 22 23 24 26 27 27 29 35 38 41 43 45 47 48 48
46 45 46 49 46 45 44 42 40 39 37 35 35 33 32 30 25 22 20 20 19 19 20 20 21 21 23 25 24 25 26 26 27 29 33 36 37 38 39 41 43 47 41
41 43 42 42 41 41 39 36 35 35 33 32 31 29 29 26 21 19 20 20 19 20 22 23 24 25 25 26 25 27 28 28 27 29 33 33 36 36 37 39 40 43 48
38 39 38 39 38 36 34 33 32 30 29 28 27 25 24 23 19 18 19 21 22 23 23 23 25 26 27 29 29 30 31 30 28 29 29 30 30 32 32 34 39 45 52
36 35 34 33 32 31 30 28 26 24 24 23 21 19 18 19 19 18 17 17 17 20 23 25 26 27 30 30 32 32 32 32 32 30 28 28 29 29 29 35 40 49 58
31 30 29 27 26 25 24 22 21 21 19 18 18 17 16 14 13 13 13 15 18 23 25 25 28 29 28 29 32 34 35 35 37 38 34 30 29 30 31 35 42 50 55
25 24 23 22 21 20 19 17 16 14 13 13 12 12 10 10 13 14 16 18 20 22 25 29 31 34 34 35 35 34 31 33 36 36 36 35 35 36 38 41 43 48 55
19 18 17 16 16 15 13 13 11 10 8 8 8 8 10 12 12 13 17 22 24 24 29 32 36 36 35 35 35 35 35 33 35 37 38 39 40 42 45 46 47 51 54
13 13 13 13 13 11 9 8 7 7 7 8 7 9 10 12 15 20 23 23 26 28 30 32 33 34 36 34 31 30 31 31 33 36 39 41 44 47 51 55 57 59 62
9 10 10 9 9 8 7 7 6 6 7 8 10 13 16 18 20 22 23 25 26 28 29 32 34 34 32 31 31 30 32 33 35 38 42 44 48 52 56 57 62 65 66
7 6 6 5 4 3 3 3 4 7 10 11 14 15 16 17 19 23 24 25 29 31 32 33 35 37 38 38 36 35 35 34 36 38 42 47 51 55 60 61 66 65 62
5 5 4 3 3 2 4 7 9 10 12 14 16 17 19 21 23 25 25 26 29 32 34 36 37 37 38 39 38 36 34 36 38 41 45 49 55 59 63 66 66 62 60
7 5 5 3 1 3 5 8 11 13 15 17 18 19 20 22 23 25 26 28 29 30 32 34 36 37 38 38 37 36 38 38 41 44 48 52 56 60 64 68 66 63 61
9 7 5 3 2 4 6 8 10 12 13 15 18 19 19 21 23 25 26 28 28 29 32 35 36 36 37 38 37 37 38 41 43 46 50 54 58 62 67 66 66 62 61
11 10 8 6 6 7 9 10 12 13 15 16 16 17 20 20 22 24 26 29 31 32 35 36 36 36 37 37 36 36 38 42 45 49 53 57 61 64 66 65 66 66 62
15 14 12 11 11 10 11 13 14 15 16 17 20 21 22 23 24 25 26 30 33 35 36 36 36 35 36 36 36 36 40 43 47 51 55 59 64 64 63 68 67 63 63
19 18 16 15 14 14 14 16 17 17 18 18 20 23 24 26 28 29 29 31 34 36 36 36 36 36 36 35 35 37 41 45 49 53 57 62 63 62 68 70 66 64 64
24 22 21 19 19 19 18 19 19 19 20 21 21 22 25 26 28 29 30 32 34 36 35 36 35 35 35 34 34 38 42 47 50 54 59 60 58 66 70 68 68 65 59
29 28 27 26 24 23 23 21 21 21 22 22 23 25 26 27 28 30 31 33 35 36 34 33 34 34 32 32 34 37 43 47 52 55 58 56 64 70 71 67 62 64 65
33 33 32 30 29 28 26 24 23 24 24 24 24 26 27 28 28 30 31 33 36 36 33 32 32 32 31 32 35 38 43 48 51 54 49 59 69 71 64 65 66 66 68
37 36 36 34 32 31 29 27 26 25 26 26 25 28 29 28 28 30 31 33 36 36 33 31 31 30 31 33 37 40 45 47 51 51 56 64 63 64 67 65 67 70 68
40 39 39 37 36 35 33 30 27 26 28 28 27 30 29 28 28 30 31 33 36 35 32 31 30 30 32 35 39 44 47 51 55 53 56 61 64 67 68 69 70 68 63
Wind_Direction
125 121 128 132 134 128 124 123 123 123 122 122 119 116 113 112 111 112 106 101 101 100 99 98 92 83 77 70 63 46 18 346 327 312 306 308 308 309 312 316 316 317 316
118 113 116 122 121 116 114 114 115 113 114 112 110 108 107 103 100 100 104 106 104 102 95 92 84 73 64 47 34 25 4 344 338 329 324 326 325 326 324 323 324 324 322
115 104 106 114 114 112 113 113 111 110 109 107 107 106 107 107 107 103 101 98 92 87 83 77 72 64 53 36 22 11 3 354 347 339 332 330 328 327 325 326 326 326 327
109 104 104 111 113 113 113 111 110 110 110 109 107 106 103 100 98 97 95 90 84 77 70 62 52 42 35 22 13 5 356 347 344 337 334 331 331 332 330 330 328 331 330
110 106 104 108 109 110 111 112 112 111 109 107 106 102 100 98 90 85 81 74 68 64 57 49 38 26 21 14 6 359 353 349 343 339 336 334 335 335 334 334 331 331 330
109 113 113 110 110 110 112 112 110 107 107 108 106 104 99 90 85 80 74 69 62 54 45 35 27 17 9 10 5 359 354 349 342 338 338 336 335 335 333 334 332 332 327
115 112 109 109 110 109 107 110 109 107 106 101 97 94 91 87 79 69 61 55 48 41 33 26 18 11 1 355 356 349 346 345 341 338 336 337 332 334 330 326 327 326 322
110 109 110 107 104 104 105 103 102 101 99 96 95 92 87 81 73 61 52 44 35 30 22 15 9 4 1 350 351 346 344 342 340 338 333 329 326 326 324 321 322 321 316
113 110 105 103 103 102 99 97 96 95 91 89 85 83 80 72 60 48 39 35 25 21 15 9 4 1 359 353 347 342 339 336 335 334 329 325 322 321 318 319 323 323 322
105 102 101 100 100 98 95 96 93 85 84 83 77 72 67 63 57 41 24 21 19 16 10 3 1 359 355 351 346 342 337 335 333 330 329 326 322 320 321 324 328 326 325
99 97 96 94 91 90 90 88 82 82 80 79 72 65 55 41 33 17 9 9 11 6 360 1 358 356 350 344 339 337 336 328 328 323 323 325 326 328 328 329 330 327 322
101 99 98 98 94 89 86 86 84 78 71 65 56 46 33 22 11 359 4 5 1 359 356 355 353 349 342 338 335 333 329 323 320 324 327 328 329 329 329 327 324 322 321
112 112 107 96 90 91 93 92 85 77 61 49 35 22 18 7 359 2 1 357 353 353 350 346 343 339 336 332 327 322 318 320 325 327 328 330 331 330 329 330 328 327 325
117 113 108 104 100 92 74 64 53 49 38 30 24 15 8 358 352 351 349 344 342 339 341 341 340 334 327 324 324 325 327 330 330 329 329 329 328 329 328 330 329 330 327
125 112 102 100 95 85 69 45 26 19 17 10 5 359 353 346 347 345 345 344 339 335 335 332 330 328 330 332 331 328 327 329 330 330 329 328 328 329 329 330 330 328 320
156 158 160 159 156 89 35 22 17 7 359 355 350 348 347 347 344 341 339 336 334 329 328 329 329 329 330 329 327 325 327 329 331 329 328 329 329 329 329 329 329 323 315
174 194 187 179 69 29 19 7 359 351 349 346 344 340 337 334 333 331 330 330 327 325 322 324 326 329 329 328 326 326 326 329 330 330 330 330 329 328 328 327 326 320 313
196 203 218 237 293 330 343 342 337 335 331 330 328 328 328 327 326 325 324 326 324 325 326 328 328 328 328 327 327 325 327 328 329 329 329 329 328 328 327 324 321 313 308
219 224 234 256 280 295 306 314 316 315 316 318 320 322 322 325 324 324 323 326 329 331 331 329 328 328 327 327 326 326 326 327 328 329 329 328 328 328 324 322 316 312 306
229 233 243 256 267 279 291 298 301 304 308 313 316 320 321 323 323 324 327 332 332 331 329 326 327 327 327 328 327 327 326 327 328 329 327 327 328 327 323 319 314 306 304
236 239 245 253 261 269 276 283 290 298 305 311 314 319 322 323 326 328 328 331 331 330 328 325 326 327 328 327 327 326 326 327 329 328 328 328 328 324 324 319 311 307 305
241 244 247 251 255 260 267 277 285 292 300 307 311 314 316 319 323 326 326 329 330 330 327 324 324 326 327 327 327 327 327 328 329 329 327 327 325 325 323 317 314 309 306
243 246 248 252 257 260 265 273 281 289 295 301 308 311 313 315 318 323 324 327 328 329 326 323 323 325 326 327 328 328 328 329 329 328 328 326 327 327 324 317 312 311 311
244 247 250 252 255 258 264 270 278 284 289 295 302 307 309 312 315 320 323 325 327 328 326 324 325 325 326 327 329 330 330 330 330 330 332 332 330 325 315 311 312 313 313
248 249 251 253 256 260 264 267 272 280 288 292 297 304 306 308 311 317 322 324 326 326 326 326 325 324 325 328 331 331 331 331 333 341 340 330 318 315 313 314 316 316 315
251 252 254 255 257 259 261 265 269 275 283 288 290 298 303 306 309 317 321 324 326 325 326 326 324 324 326 329 332 333 335 338 342 341 331 322 320 321 321 319 319 318 319